Regional Weather Roundup
Issued by NWS

Home | Current Version | Previous Version | Graphics & Text | Print | Product List | Glossary On
Versions: 1 2 3 4 5 6 7 8 9 10 11 12 13 14 15 16 17 18 19 20 21 22 23 24 25 26 27 28 29 30 31 32 33 34 35 36 37 38 39 40 41 42 43 44 45 46 47 48 49 50
000
ASUS43 KOAX 221410
RWRNE

WEATHER ROUNDUP FOR NEBRASKA
NATIONAL WEATHER SERVICE OMAHA NE
800 AM CST THU FEB 22 2018

NOTES: SATELLITE DATA IS BEING USED TO AUGMENT CLOUD COVER ABOVE
       12000 FEET.
       "FAIR" INDICATES FEW OR NO CLOUDS BELOW 12,000 FEET WITH NO
       SIGNIFICANT WEATHER AND/OR OBSTRUCTIONS TO VISIBILITY.


NEZ001>004-019>022-054>056-221500-
NEBRASKA PANHANDLE

CITY           SKY/WX    TMP DP  RH WIND       PRES   REMARKS
SCOTTSBLUFF    CLOUDY    14  11  87 E8        30.09F WCI   3
ALLIANCE       CLOUDY    10   8  92 CALM      30.10S
CHADRON        FAIR      14   7  73 SW6       30.12F WCI   5
GORDON         CLOUDY     6   2  84 CALM      30.14S
KIMBALL        CLOUDY    13  11  92 CALM      30.03F
SIDNEY         CLOUDY    16  12  84 S10       30.09S WCI   4
$$

NEZ057>060-069>072-079>082-221500-
SOUTHWEST NEBRASKA

CITY           SKY/WX    TMP DP  RH WIND       PRES   REMARKS
NORTH PLATTE   LGT SNOW  20  15  81 SE6       30.25R VSB 1   WCI  12
IMPERIAL       CLOUDY    19  14  81 SE12      30.19R WCI   7
LEXINGTON      CLOUDY    22  17  83 SE8       30.28S WCI  12
MCCOOK         CLOUDY    21  13  71 SE12      30.26R WCI   9
OGALLALA       LGT SNOW  20  17  86 SE7       30.19R WCI  11
$$

NEZ005>010-023>029-035>040-094-221500-
NORTH CENTRAL NEBRASKA

CITY           SKY/WX    TMP DP  RH WIND       PRES   REMARKS
VALENTINE      CLOUDY    14  10  84 E5        30.25S WCI   6
AINSWORTH      CLOUDY    19  17  93 S8        30.25S WCI   9
BROKEN BOW     CLOUDY    20  16  84 SE9       30.27R WCI   9
O`NEILL        FLURRIES  19  18  95 SE6       30.33S WCI  11
ORD            CLOUDY    20  18  92 SE6       30.29F WCI  12
THEDFORD       CLOUDY    21  17  85 S8        30.23R WCI  11
$$

NEZ041-046>049-061>064-073>077-083>087-221500-
SOUTH CENTRAL NEBRASKA

CITY           SKY/WX    TMP DP  RH WIND       PRES   REMARKS
GRAND ISLAND   CLOUDY    20  17  88 E10       30.33F WCI   9
AURORA         CLOUDY    20  17  90 E12       30.32F WCI   8
HASTINGS       CLOUDY    20  17  88 E9        30.32S FOG     WCI   9
HEBRON         CLOUDY    23  21  91 E8        30.34S WCI  14
HOLDREGE       CLOUDY    20  18  91 SE9       30.30R WCI  10
KEARNEY        CLOUDY    20  17  88 SE9       30.32R WCI   9
YORK           FAIR      19  19 100 E10       30.34F WCI   8
$$

NEZ011>018-030>034-042>045-221500-
NORTHEAST NEBRASKA

CITY           SKY/WX    TMP DP  RH WIND       PRES   REMARKS
NORFOLK        CLOUDY    21  18  88 E10       30.38R WCI  10
ALBION         CLOUDY    22  19  87 SE12      30.34F WCI  10
BLAIR          LGT SNOW  23  21  92 NE9       30.40F WCI  13
COLUMBUS       CLOUDY    21  18  88 E9        30.39F WCI  11
FREMONT        FLURRIES  22  19  89 NE6       30.41F WCI  15
TEKAMAH        CLOUDY    22  18  85 NE6       30.44S WCI  14
WAYNE          CLOUDY    21  20  96 E9        30.42S WCI  11
$$

NEZ050>053-065>068-078-088>093-221500-
SOUTHEAST NEBRASKA

CITY           SKY/WX    TMP DP  RH WIND       PRES   REMARKS
LINCOLN        CLOUDY    23  20  88 NE8       30.39F WCI  14
OMAHA EPPLEY   SNOW      24  20  84 NE7       30.44F VSB 1/2 WCI  16
BEATRICE       MIX PCPN  25  22  91 E6        30.35F WCI  18
FALLS CITY     CLOUDY    27  25  92 E12       30.38F FOG     WCI  17
NEBRASKA CITY  LGT SNOW  24  24 100 E7        30.39F WCI  16
PLATTSMOUTH    LGT SNOW  23  22  96 NE8       30.39F WCI  14
$$

NEZ044-045-051>053-067-221500-
OMAHA AREA

CITY           SKY/WX    TMP DP  RH WIND       PRES   REMARKS
OMAHA EPPLEY   SNOW      24  20  84 NE7       30.44F VSB 1/2 WCI  16
BLAIR          LGT SNOW  23  21  92 NE9       30.40F WCI  13
FREMONT        FLURRIES  22  19  89 NE6       30.41F WCI  15
MILLARD        LGT SNOW  25  22  89 E6        30.41F VSB 3/4 WCI  18
OFFUTT AFB     LGT SNOW  25  19  80 NE8       30.42F WCI  16
PLATTSMOUTH    LGT SNOW  23  22  96 NE8       30.39F WCI  14
WAHOO          CLOUDY    22  19  88 NE6       30.40F WCI  15
$$




USA.gov is the U.S. government's official web portal to all federal, state and local government web resources and services.